Content
SEND FEEDBACK

Daily
Averages
Monthly
Summary
United States of America

ROCK HILL, NEW YORK


Home > North America > United States > New York
Elevation: 1260 feet     Latitude: 41 35N     Longitude: 074 37W

WEATHER
 
SELECT A DAY
Number of Records: 450,498;   Date Range: 1/1/95 - 10/20/14
 
SHARE

PRINT THIS DATA

[ ← Previous Day ]
WEATHER ALMANAC - JUNE 9, 2014
[ Next Day → ]
[ °C ]   °F
Weather ElementAverageHighLow
Temperature61 °F66.2 °F (12:35 am)59 °F (4:35 am)
Dewpoint59.8 °F60.8 °F (1:35 am)55.4 °F (12:35 am)
Humidity96.1 %100 % (1:35 am)68 % (12:35 am)
Barometer29.98 in30.03 in (10:35 pm)29.94 in (12:35 am)
Wind Speed4.7 mph9.2 mph (5:15 am)
Weather ElementAverage
Visibility5.6 mi
Wind DirectionE (93.4 °)

Weather ElementTotal
Precipitation---
Heating Degree Days2.4 (Base 65)
Growing Degree Days12.6 (Base 50)
Averaged from 65 records on June 9, 2014
WEATHER CONDITIONS BREAKOUT
WIND DIRECTION BREAKOUT
WEATHER BY HOUR - JUNE 9, 2014
[ °C ]   °F
Local TimeTemperatureDewpointHumidityBarometerVisibilityWind DirectionWind SpeedGust SpeedPrecipitationEventsConditions
12:35 AM66.2 °F55.4 °F68 %29.94 in10.0 miSSE (150°)8.1 mphMostly Cloudy
12:55 AM64.4 °F57.2 °F77 %29.96 in9.0 miWest (280°)8.1 mphOvercast
1:15 AM62.6 °F59.0 °F88 %29.95 in7.0 miNorth (360°)6.9 mphOvercast
1:35 AM60.8 °F60.8 °F100 %29.95 in8.0 miENE (60°)5.8 mphOvercast
1:55 AM60.8 °F60.8 °F100 %29.94 in10.0 miENE (60°)3.5 mphOvercast
2:15 AM60.8 °F60.8 °F100 %29.94 in8.0 miCalmOvercast
2:35 AM60.8 °F59.0 °F94 %29.95 in4.0 miESE (110°)3.5 mphOvercast
2:55 AM60.8 °F59.0 °F94 %29.94 in6.0 miNE (50°)5.8 mphOvercast
3:15 AM60.8 °F59.0 °F94 %29.94 in10.0 miNE (50°)3.5 mphOvercast
3:35 AM60.8 °F59.0 °F94 %29.94 in6.0 miEast (90°)5.8 mphOvercast
3:55 AM60.8 °F59.0 °F94 %29.96 in7.0 miESE (120°)3.5 mphOvercast
4:15 AM60.8 °F59.0 °F94 %29.96 in3.0 miEast (90°)5.8 mphOvercast
4:35 AM59.0 °F59.0 °F100 %29.96 in8.0 miEast (100°)6.9 mphOvercast
4:55 AM60.8 °F59.0 °F94 %29.96 in10.0 miESE (110°)6.9 mphOvercast
5:15 AM60.8 °F59.0 °F94 %29.96 in7.0 miESE (120°)9.2 mphOvercast
5:35 AM59.0 °F59.0 °F100 %29.96 in6.0 miESE (120°)5.8 mphOvercast
5:55 AM59.0 °F57.2 °F94 %29.97 in7.0 miESE (110°)5.8 mphOvercast
6:15 AM60.8 °F59.0 °F94 %29.97 in7.0 miESE (110°)5.8 mphOvercast
6:35 AM59.0 °F59.0 °F100 %29.97 in5.0 miESE (110°)6.9 mphOvercast
6:55 AM59.0 °F59.0 °F100 %29.97 in8.0 miEast (100°)5.8 mphOvercast
7:15 AM59.0 °F59.0 °F100 %29.97 in10.0 miCalmOvercast
7:35 AM59.0 °F59.0 °F100 %29.98 in10.0 miESE (110°)5.8 mphOvercast
7:55 AM60.8 °F59.0 °F94 %29.97 in10.0 miSE (130°)5.8 mphOvercast
8:15 AM60.8 °F59.0 °F94 %29.98 in5.0 miESE (110°)4.6 mphOvercast
8:35 AM60.8 °F59.0 °F94 %29.98 in9.0 miCalmOvercast
8:55 AM60.8 °F59.0 °F94 %29.98 in9.0 miEast (100°)5.8 mphOvercast
9:15 AM60.8 °F59.0 °F94 %29.98 in8.0 miEast (100°)5.8 mphOvercast
9:35 AM60.8 °F59.0 °F94 %29.98 in7.0 miESE (120°)5.8 mphOvercast
9:55 AM60.8 °F59.0 °F94 %29.98 in5.0 miEast (90°)6.9 mphOvercast
10:15 AM60.8 °F59.0 °F94 %29.98 in5.0 miEast (90°)6.9 mphOvercast
10:35 AM60.8 °F59.0 °F94 %29.98 in5.0 miCalmOvercast
11:15 AM60.8 °F60.8 °F100 %29.99 in7.0 miEast (90°)4.6 mphOvercast
11:35 AM60.8 °F59.0 °F94 %29.99 in5.0 miESE (120°)5.8 mphOvercast
11:55 AM60.8 °F60.8 °F100 %29.99 in5.0 miSE (130°)6.9 mphOvercast
12:35 PM60.8 °F60.8 °F100 %29.99 in2.5 miESE (110°)3.5 mphOvercast
12:55 PM60.8 °F60.8 °F100 %29.99 in5.0 miCalmOvercast
1:15 PM60.8 °F60.8 °F100 %29.99 in7.0 miEast (90°)4.6 mphOvercast
1:35 PM62.6 °F60.8 °F94 %29.99 in8.0 miEast (80°)3.5 mphOvercast
1:55 PM62.6 °F60.8 °F94 %29.99 in8.0 miEast (80°)3.5 mphOvercast
2:15 PM62.6 °F60.8 °F94 %30.00 in7.0 miENE (70°)4.6 mphOvercast
2:35 PM60.8 °F60.8 °F100 %30.00 in7.0 miEast (90°)5.8 mphOvercast
4:15 PM62.6 °F60.8 °F94 %29.99 in7.0 miEast (90°)4.6 mphOvercast
4:35 PM62.6 °F60.8 °F94 %30.00 in4.0 miEast (80°)6.9 mphOvercast
4:55 PM62.6 °F60.8 °F94 %29.99 in3.0 miEast (90°)4.6 mphOvercast
5:15 PM60.8 °F60.8 °F100 %29.99 in5.0 miEast (90°)5.8 mphOvercast
5:35 PM60.8 °F59.0 °F94 %29.99 in5.0 miEast (90°)5.8 mphOvercast
5:55 PM60.8 °F59.0 °F94 %29.99 in3.0 miEast (90°)5.8 mphOvercast
6:15 PM62.6 °F60.8 °F94 %29.99 in3.0 miEast (80°)6.9 mphOvercast
6:35 PM60.8 °F59.0 °F94 %30.00 in5.0 miEast (100°)4.6 mphOvercast
6:55 PM60.8 °F60.8 °F100 %30.00 in4.0 miEast (100°)4.6 mphOvercast
7:15 PM60.8 °F60.8 °F100 %30.00 in5.0 miESE (110°)4.6 mphOvercast
7:35 PM60.8 °F60.8 °F100 %30.00 in5.0 miCalmOvercast
7:55 PM60.8 °F60.8 °F100 %30.00 in2.5 miESE (120°)5.8 mphOvercast
8:15 PM60.8 °F60.8 °F100 %30.00 in2.5 miEast (90°)3.5 mphOvercast
8:35 PM60.8 °F59.0 °F94 %29.99 in3.0 miEast (90°)4.6 mphOvercast
8:55 PM60.8 °F60.8 °F100 %30.00 in5.0 miESE (120°)4.6 mphOvercast
9:15 PM60.8 °F60.8 °F100 %30.01 in5.0 miESE (110°)4.6 mphOvercast
9:35 PM60.8 °F60.8 °F100 %30.01 in1.8 miEast (100°)3.5 mphOvercast
9:55 PM60.8 °F60.8 °F100 %30.00 in0.8 miEast (100°)5.8 mphOvercast
10:15 PM60.8 °F60.8 °F100 %30.02 in1.2 miCalmOvercast
10:35 PM60.8 °F60.8 °F100 %30.03 in1.0 miCalmOvercast
10:55 PM60.8 °F60.8 °F100 %30.02 in0.8 miEast (100°)4.6 mphOvercast
11:15 PM60.8 °F60.8 °F100 %30.01 in0.5 miESE (110°)5.8 mphOvercast
11:35 PM60.8 °F60.8 °F100 %30.01 in0.2 miEast (100°)3.5 mphOvercast
11:55 PM60.8 °F60.8 °F100 %30.01 in0.5 miEast (100°)3.5 mphOvercast
Hourly data recorded from KMSV, located miles away from Rock Hill, New York







STORIES FROM OUR PARTNERS